| time (UTC) | temp F | wind direction | speed MPH | gust MPH | rain 1hr in | rain 24hr in | rain mn in | humidity % | barometer mb |
| 20260510201507 | 68 | 141 | 0.0 | 2.0 | 0.00 | 0.31 | 0.00 | 40 | 1010.5 |
| 20260510200019 | 69 | 135 | 0.0 | 0.0 | 0.00 | 0.31 | 0.00 | 36 | 1010.5 |
| 20260510194504 | 68 | 28 | 0.0 | 0.0 | 0.00 | 0.31 | 0.00 | 38 | 1010.7 |
| 20260510193012 | 65 | 146 | 0.0 | 0.0 | 0.00 | 0.31 | 0.00 | 45 | 1010.7 |
| 20260510191502 | 64 | 146 | 0.0 | 0.0 | 0.00 | 0.42 | 0.00 | 46 | 1011.0 |
| 20260510190044 | 64 | 145 | 0.0 | 0.0 | 0.00 | 0.42 | 0.00 | 47 | 1011.1 |
| 20260510184544 | 65 | 149 | 0.0 | 0.0 | 0.00 | 0.42 | 0.00 | 45 | 1011.1 |
| 20260510183041 | 66 | 149 | 0.0 | 0.0 | 0.00 | 0.42 | 0.00 | 42 | 1011.1 |
| 20260510181528 | 67 | 144 | 0.0 | 0.0 | 0.00 | 0.42 | 0.00 | 38 | 1011.0 |
| 20260510180007 | 69 | 147 | 0.0 | 0.0 | 0.00 | 0.42 | 0.00 | 36 | 1011.0 |
| 20260510174504 | 67 | 165 | 0.0 | 1.0 | 0.00 | 0.42 | 0.00 | 37 | 1011.2 |
| 20260510173048 | 65 | 72 | 0.0 | 1.0 | 0.00 | 0.42 | 0.00 | 35 | 1011.4 |
| 20260510171543 | 65 | 1 | 0.0 | 3.0 | 0.00 | 0.42 | 0.00 | 32 | 1011.3 |
| 20260510170016 | 62 | 122 | 0.0 | 2.0 | 0.00 | 0.42 | 0.00 | 30 | 1011.1 |
| 20260510164514 | 61 | 124 | 0.0 | 2.0 | 0.00 | 0.42 | 0.00 | 33 | 1011.5 |
| 20260510163052 | 59 | 132 | 0.0 | 0.0 | 0.00 | 0.42 | 0.00 | 35 | 1011.7 |
| 20260510161549 | 58 | 50 | 0.0 | 0.0 | 0.00 | 0.42 | 0.00 | 37 | 1011.5 |
| 20260510160037 | 58 | 131 | 0.0 | 0.0 | 0.00 | 0.42 | 0.00 | 40 | 1011.6 |
| 20260510154540 | 57 | 70 | 0.0 | 0.0 | 0.00 | 0.42 | 0.00 | 42 | 1011.5 |
| 20260510153038 | 56 | 27 | 0.0 | 0.0 | 0.00 | 0.42 | 0.00 | 42 | 1011.8 |
| 20260510151528 | 56 | 50 | 0.0 | 0.0 | 0.00 | 0.42 | 0.00 | 43 | 1012.1 |
| 20260510150026 | 55 | 49 | 0.0 | 0.0 | 0.00 | 0.42 | 0.00 | 43 | 1012.0 |
| 20260510144529 | 55 | 53 | 0.0 | 0.0 | 0.00 | 0.42 | 0.00 | 44 | 1011.9 |
| 20260510143031 | 54 | 7 | 0.0 | 0.0 | 0.00 | 0.42 | 0.00 | 44 | 1011.7 |
| 20260510141518 | 54 | 8 | 0.0 | 0.0 | 0.00 | 0.42 | 0.00 | 45 | 1011.5 |
| 20260510140059 | 54 | 342 | 0.0 | 0.0 | 0.00 | 0.42 | 0.00 | 45 | 1011.4 |
| 20260510134606 | 53 | 209 | 0.0 | 0.0 | 0.00 | 0.42 | 0.00 | 45 | 1011.4 |
| 20260510133049 | 53 | 209 | 0.0 | 0.0 | 0.00 | 0.42 | 0.00 | 45 | 1011.3 |
| 20260510131538 | 53 | 209 | 0.0 | 0.0 | 0.00 | 0.43 | 0.00 | 45 | 1011.1 |
| 20260510130019 | 53 | 209 | 0.0 | 0.0 | 0.00 | 0.43 | 0.00 | 45 | 1011.3 |
| 20260510124517 | 52 | 209 | 0.0 | 0.0 | 0.00 | 0.43 | 0.00 | 45 | 1011.1 |
| 20260510123109 | 52 | 209 | 0.0 | 0.0 | 0.00 | 0.43 | 0.00 | 45 | 1010.9 |
| 20260510121555 | 52 | 209 | 0.0 | 0.0 | 0.00 | 0.43 | 0.00 | 45 | 1010.9 |
| 20260510120036 | 51 | 209 | 0.0 | 0.0 | 0.00 | 0.43 | 0.00 | 45 | 1010.9 |
| 20260510114535 | 51 | 264 | 0.0 | 0.0 | 0.00 | 0.43 | 0.00 | 45 | 1010.6 |
| 20260510113022 | 51 | 264 | 0.0 | 0.0 | 0.00 | 0.43 | 0.00 | 45 | 1010.3 |
| 20260510111519 | 51 | 264 | 0.0 | 0.0 | 0.00 | 0.43 | 0.00 | 45 | 1010.2 |
| 20260510110020 | 50 | 264 | 0.0 | 0.0 | 0.00 | 0.43 | 0.00 | 45 | 1010.4 |
| 20260510104517 | 50 | 264 | 0.0 | 0.0 | 0.00 | 0.43 | 0.00 | 45 | 1010.2 |
| 20260510103017 | 50 | 264 | 0.0 | 1.0 | 0.00 | 0.43 | 0.00 | 45 | 1010.1 |
| 20260510101517 | 50 | 264 | 0.0 | 0.0 | 0.00 | 0.43 | 0.00 | 45 | 1010.1 |
| 20260510100016 | 50 | 264 | 0.0 | 1.0 | 0.00 | 0.43 | 0.00 | 45 | 1010.0 |
| 20260510094515 | 50 | 270 | 0.0 | 0.0 | 0.00 | 0.43 | 0.00 | 45 | 1010.3 |
| 20260510093057 | 50 | 270 | 0.0 | 0.0 | 0.00 | 0.43 | 0.00 | 45 | 1010.4 |
| 20260510091600 | 50 | 270 | 0.0 | 0.0 | 0.00 | 0.43 | 0.00 | 45 | 1010.3 |
| 20260510090040 | 50 | 269 | 0.0 | 0.0 | 0.00 | 0.43 | 0.00 | 45 | 1010.4 |
| 20260510084539 | 50 | 269 | 0.0 | 0.0 | 0.00 | 0.43 | 0.00 | 45 | 1010.5 |
| 20260510083027 | 50 | 270 | 0.0 | 1.0 | 0.00 | 0.43 | 0.00 | 45 | 1010.6 |
| 20260510081532 | 50 | 349 | 0.0 | 2.0 | 0.00 | 0.43 | 0.00 | 45 | 1010.4 |
| 20260510080024 | 51 | 160 | 0.0 | 0.0 | 0.00 | 0.43 | 0.00 | 45 | 1009.7 |
| 20260510074524 | 51 | 160 | 0.0 | 0.0 | 0.00 | 0.43 | 0.00 | 45 | 1009.6 |
| 20260510073031 | 51 | 160 | 0.0 | 0.0 | 0.00 | 0.43 | 0.00 | 45 | 1009.6 |
| 20260510071524 | 51 | 160 | 0.0 | 0.0 | 0.00 | 0.43 | 0.00 | 45 | 1009.7 |
| 20260510070021 | 51 | 160 | 0.0 | 0.0 | 0.00 | 0.43 | 0.00 | 45 | 1009.7 |
| 20260510064521 | 51 | 160 | 0.0 | 0.0 | 0.00 | 0.43 | 0.00 | 45 | 1009.8 |
| 20260510063003 | 51 | 160 | 0.0 | 0.0 | 0.00 | 0.43 | 0.00 | 45 | 1009.8 |
| 20260510061502 | 51 | 160 | 0.0 | 0.0 | 0.00 | 0.43 | 0.00 | 45 | 1009.6 |
| 20260510060044 | 51 | 160 | 0.0 | 0.0 | 0.00 | 0.43 | 0.00 | 45 | 1009.4 |
| 20260510054544 | 51 | 160 | 0.0 | 0.0 | 0.00 | 0.43 | 0.00 | 45 | 1009.6 |
| 20260510053026 | 51 | 160 | 0.0 | 0.0 | 0.00 | 0.43 | 0.00 | 45 | 1009.6 |
| 20260510051529 | 51 | 160 | 0.0 | 0.0 | 0.00 | 0.43 | 0.00 | 45 | 1009.7 |
| 20260510050007 | 51 | 160 | 0.0 | 0.0 | 0.00 | 0.43 | 0.00 | 45 | 1009.8 |
| 20260510044508 | 51 | 160 | 0.0 | 0.0 | 0.00 | 0.43 | 0.00 | 45 | 1009.8 |
| 20260510043104 | 51 | 160 | 0.0 | 0.0 | 0.00 | 0.43 | 0.00 | 45 | 1009.8 |
| 20260510041549 | 51 | 160 | 0.0 | 0.0 | 0.00 | 0.43 | 0.43 | 45 | 1009.6 |
| 20260510040030 | 51 | 160 | 0.0 | 0.0 | 0.00 | 0.43 | 0.43 | 45 | 1009.4 |
| 20260510034533 | 51 | 160 | 0.0 | 0.0 | 0.00 | 0.43 | 0.43 | 45 | 1009.4 |
| 20260510033011 | 51 | 160 | 0.0 | 0.0 | 0.00 | 0.43 | 0.43 | 45 | 1009.3 |
| 20260510031516 | 51 | 160 | 0.0 | 0.0 | 0.00 | 0.43 | 0.43 | 45 | 1009.4 |
| 20260510030050 | 52 | 160 | 0.0 | 0.0 | 0.00 | 0.43 | 0.43 | 45 | 1009.6 |
| 20260510024550 | 52 | 160 | 0.0 | 0.0 | 0.00 | 0.43 | 0.43 | 45 | 1009.7 |
| 20260510023039 | 51 | 160 | 0.0 | 0.0 | 0.00 | 0.43 | 0.43 | 45 | 1009.6 |
| 20260510021540 | 51 | 160 | 0.0 | 0.0 | 0.00 | 0.43 | 0.43 | 45 | 1009.6 |
| 20260510020037 | 51 | 160 | 0.0 | 0.0 | 0.00 | 0.43 | 0.43 | 44 | 1009.5 |
| 20260510014537 | 52 | 160 | 0.0 | 0.0 | 0.00 | 0.43 | 0.43 | 44 | 1009.5 |
| 20260510013036 | 52 | 160 | 0.0 | 0.0 | 0.00 | 0.43 | 0.43 | 44 | 1009.4 |
| 20260510011536 | 52 | 160 | 0.0 | 0.0 | 0.00 | 0.43 | 0.43 | 44 | 1009.1 |
| 20260510010035 | 52 | 160 | 0.0 | 0.0 | 0.00 | 0.43 | 0.43 | 44 | 1008.9 |
| 20260510004535 | 52 | 160 | 0.0 | 0.0 | 0.00 | 0.43 | 0.43 | 44 | 1008.9 |
| 20260510003035 | 53 | 160 | 0.0 | 0.0 | 0.00 | 0.43 | 0.43 | 44 | 1008.9 |
| 20260510001516 | 53 | 160 | 0.0 | 0.0 | 0.00 | 0.43 | 0.43 | 44 | 1008.7 |
| 20260510000018 | 53 | 160 | 0.0 | 0.0 | 0.01 | 0.43 | 0.43 | 44 | 1008.7 |
| 20260509234600 | 53 | 160 | 0.0 | 0.0 | 0.02 | 0.43 | 0.43 | 44 | 1008.9 |
| 20260509233056 | 53 | 159 | 0.0 | 0.0 | 0.05 | 0.43 | 0.43 | 44 | 1008.9 |
| 20260509231537 | 53 | 160 | 0.0 | 0.0 | 0.09 | 0.43 | 0.43 | 44 | 1009.0 |
| 20260509230037 | 54 | 70 | 0.0 | 0.0 | 0.14 | 0.42 | 0.42 | 44 | 1009.2 |
| 20260509224519 | 54 | 40 | 0.0 | 0.0 | 0.14 | 0.41 | 0.41 | 43 | 1008.8 |
| 20260509223022 | 54 | 351 | 0.0 | 0.0 | 0.13 | 0.38 | 0.38 | 43 | 1009.4 |
| 20260509221507 | 54 | 351 | 0.0 | 0.0 | 0.11 | 0.34 | 0.34 | 43 | 1009.5 |
| 20260509220005 | 54 | 350 | 0.0 | 0.0 | 0.06 | 0.28 | 0.28 | 43 | 1009.8 |
| 20260509214507 | 54 | 350 | 0.0 | 0.0 | 0.06 | 0.27 | 0.27 | 42 | 1009.7 |
| 20260509213006 | 54 | 350 | 0.0 | 0.0 | 0.06 | 0.25 | 0.25 | 42 | 1009.9 |
| 20260509211508 | 55 | 350 | 0.0 | 0.0 | 0.05 | 0.23 | 0.23 | 42 | 1009.9 |
| 20260509210009 | 55 | 350 | 0.0 | 0.0 | 0.06 | 0.22 | 0.22 | 41 | 1009.5 |
| 20260509204503 | 55 | 350 | 0.0 | 0.0 | 0.06 | 0.21 | 0.21 | 41 | 1009.8 |
| 20260509203002 | 55 | 350 | 0.0 | 0.0 | 0.06 | 0.19 | 0.19 | 40 | 1009.8 |